sat.trackr.live / text

‹ back to catalog

STARLINK-3653

NORAD 52000 · 2022-025AW

PAYLOAD ACTIVE UNKNOWN

§ Identity

Operator
Country
US
Launch date
2022-03-09
Launch site
AFETR
Launch vehicle
Mass (kg)
RCS (m²)

Purposes: comms

External: N2YO · Heavens-Above · Gunter

§ Orbital elements

Epoch: 2026-05-24T23:48:25.308576Z

Period
95.44 min
Inclination
53.2133°
Eccentricity
0.0001414
Mean motion
15.08839455 rev/d
Perigee alt
538.8 km
Apogee alt
540.7 km
Semi-major
6,917.9 km
B*
-4.0335e-6
RAAN
36.4977°
Arg perigee
82.2899°
Mean anomaly
277.8253°
Rev number
23,244

§ Raw data

STARLINK-36531 52000U 22025AW  26144.99195959 -.00000352  00000+0 -40335-5 0  99922 52000  53.2133  36.4977 0001414  82.2899 277.8253 15.08839455232447

JSON: /api/v1/satellites/52000 · /tle

For live sub-satellite position, see the globe view (requires WebGL).

§ Visibility from observer

Set your observer location to see the next 7 days of passes ≥ 10°. The values pass through the URL so the page stays shareable.

No JS? Fill the form by hand. The geolocation button needs JavaScript.